date,time,SUV Intensity [MED/Hr],UV Index,Daily total [MED],Since Last [MED]
14/05/2023,00:01:44,-0.001,0.0,0.0,0.0
14/05/2023,00:02:45,0.001,0.0,0.0,0.0
14/05/2023,00:03:45,-0.001,0.0,0.0,0.0
14/05/2023,00:04:45,0.001,0.0,0.0,0.0
14/05/2023,00:05:45,-0.000,0.0,0.0,0.0
14/05/2023,00:06:44,-0.001,0.0,0.0,0.0
14/05/2023,00:07:44,0.001,0.0,0.0,0.0
14/05/2023,00:08:45,0.001,0.0,0.0,0.0
14/05/2023,00:09:45,-0.000,0.0,0.0,0.0
14/05/2023,00:10:45,0.000,0.0,0.0,0.0
14/05/2023,00:11:45,-0.001,0.0,0.0,0.0
14/05/2023,00:12:45,0.000,0.0,0.0,0.0
14/05/2023,00:13:44,0.000,0.0,0.0,0.0
14/05/2023,00:14:45,0.000,0.0,0.0,0.0
14/05/2023,00:15:45,0.001,0.0,0.0,0.0
14/05/2023,00:16:44,0.001,0.0,0.0,0.0
14/05/2023,00:17:44,-0.000,0.0,0.0,0.0
14/05/2023,00:18:44,0.001,0.0,0.0,0.0
14/05/2023,00:19:45,0.000,0.0,0.0,0.0
14/05/2023,00:20:45,0.000,0.0,0.0,0.0
14/05/2023,00:21:44,-0.000,0.0,0.0,0.0
14/05/2023,00:22:45,0.000,0.0,0.0,0.0
14/05/2023,00:23:45,0.000,0.0,0.0,0.0
14/05/2023,00:24:45,0.000,0.0,0.0,0.0
14/05/2023,00:25:44,0.000,0.0,0.0,0.0
14/05/2023,00:26:44,0.000,0.0,0.0,0.0
14/05/2023,00:27:44,0.001,0.0,0.0,0.0
14/05/2023,00:28:45,0.000,0.0,0.0,0.0
14/05/2023,00:29:44,0.000,0.0,0.0,0.0
14/05/2023,00:30:44,0.000,0.0,0.0,0.0
14/05/2023,00:31:45,0.000,0.0,0.0,0.0
14/05/2023,00:32:45,-0.001,0.0,0.0,0.0
14/05/2023,00:33:45,0.000,0.0,0.0,0.0
14/05/2023,00:34:45,0.000,0.0,0.0,0.0
14/05/2023,00:35:45,-0.000,0.0,0.0,0.0
14/05/2023,00:36:44,-0.001,0.0,0.0,0.0
14/05/2023,00:37:45,-0.000,0.0,0.0,0.0
14/05/2023,00:38:45,-0.001,0.0,0.0,0.0
14/05/2023,00:39:45,0.000,0.0,0.0,0.0
14/05/2023,00:40:45,-0.000,0.0,0.0,0.0
14/05/2023,00:41:44,0.000,0.0,0.0,0.0
14/05/2023,00:42:44,-0.000,0.0,0.0,0.0
14/05/2023,00:43:45,0.000,0.0,0.0,0.0
14/05/2023,00:44:45,-0.001,0.0,0.0,0.0
14/05/2023,00:45:44,-0.001,0.0,0.0,0.0
14/05/2023,00:46:45,-0.000,0.0,0.0,0.0
14/05/2023,00:47:45,0.000,0.0,0.0,0.0
14/05/2023,00:48:44,0.000,0.0,0.0,0.0
14/05/2023,00:49:44,0.001,0.0,0.0,0.0
14/05/2023,00:50:44,-0.001,0.0,0.0,0.0
14/05/2023,00:51:45,-0.000,0.0,0.0,0.0
14/05/2023,00:52:45,0.000,0.0,0.0,0.0
14/05/2023,00:53:45,-0.001,0.0,0.0,0.0
14/05/2023,00:54:45,0.001,0.0,0.0,0.0
14/05/2023,00:55:45,0.000,0.0,0.0,0.0
14/05/2023,00:56:45,0.000,0.0,0.0,0.0
14/05/2023,00:57:44,-0.001,0.0,0.0,0.0
14/05/2023,00:58:45,-0.000,0.0,0.0,0.0
14/05/2023,00:59:45,0.000,0.0,0.0,0.0
14/05/2023,01:00:44,0.000,0.0,0.0,0.0
14/05/2023,01:01:45,-0.001,0.0,0.0,0.0
14/05/2023,01:02:45,0.000,0.0,0.0,0.0
14/05/2023,01:03:45,0.001,0.0,0.0,0.0
14/05/2023,01:04:44,0.000,0.0,0.0,0.0
14/05/2023,01:05:44,0.000,0.0,0.0,0.0
14/05/2023,01:06:44,0.001,0.0,0.0,0.0
14/05/2023,01:07:44,0.000,0.0,0.0,0.0
14/05/2023,01:08:45,0.000,0.0,0.0,0.0
14/05/2023,01:09:45,0.000,0.0,0.0,0.0
14/05/2023,01:10:45,0.001,0.0,0.0,0.0
14/05/2023,01:11:45,0.000,0.0,0.0,0.0
14/05/2023,01:12:45,-0.000,0.0,0.0,0.0
14/05/2023,01:13:45,0.000,0.0,0.0,0.0
14/05/2023,01:14:45,0.000,0.0,0.0,0.0
14/05/2023,01:15:45,0.001,0.0,0.0,0.0
14/05/2023,01:16:44,0.001,0.0,0.0,0.0
14/05/2023,01:17:45,0.000,0.0,0.0,0.0
14/05/2023,01:18:45,-0.000,0.0,0.0,0.0
14/05/2023,01:19:45,0.000,0.0,0.0,0.0
14/05/2023,01:20:45,0.000,0.0,0.0,0.0
14/05/2023,01:21:45,0.000,0.0,0.0,0.0
14/05/2023,01:22:45,0.000,0.0,0.0,0.0
14/05/2023,01:23:45,0.000,0.0,0.0,0.0
14/05/2023,01:24:45,0.000,0.0,0.0,0.0
14/05/2023,01:25:45,0.000,0.0,0.0,0.0
14/05/2023,01:26:46,-0.000,0.0,0.0,0.0
14/05/2023,01:27:45,0.000,0.0,0.0,0.0
14/05/2023,01:28:44,-0.001,0.0,0.0,0.0
14/05/2023,01:29:45,0.000,0.0,0.0,0.0
14/05/2023,01:30:45,0.000,0.0,0.0,0.0
14/05/2023,01:31:45,-0.000,0.0,0.0,0.0
14/05/2023,01:32:45,0.000,0.0,0.0,0.0
14/05/2023,01:33:44,0.000,0.0,0.0,0.0
14/05/2023,01:34:44,0.001,0.0,0.0,0.0
14/05/2023,01:35:44,0.001,0.0,0.0,0.0
14/05/2023,01:36:44,0.000,0.0,0.0,0.0
14/05/2023,01:37:45,0.000,0.0,0.0,0.0
14/05/2023,01:38:45,0.000,0.0,0.0,0.0
14/05/2023,01:39:45,0.000,0.0,0.0,0.0
14/05/2023,01:40:45,-0.000,0.0,0.0,0.0
14/05/2023,01:41:45,0.000,0.0,0.0,0.0
14/05/2023,01:42:44,0.000,0.0,0.0,0.0
14/05/2023,01:43:44,-0.001,0.0,0.0,0.0
14/05/2023,01:44:45,-0.000,0.0,0.0,0.0
14/05/2023,01:45:45,0.000,0.0,0.0,0.0
14/05/2023,01:46:45,0.000,0.0,0.0,0.0
14/05/2023,01:47:45,0.001,0.0,0.0,0.0
14/05/2023,01:48:44,0.000,0.0,0.0,0.0
14/05/2023,01:49:44,0.000,0.0,0.0,0.0
14/05/2023,01:50:44,0.000,0.0,0.0,0.0
14/05/2023,01:51:45,0.000,0.0,0.0,0.0
14/05/2023,01:52:45,-0.000,0.0,0.0,0.0
14/05/2023,01:53:45,0.000,0.0,0.0,0.0
14/05/2023,01:54:45,0.000,0.0,0.0,0.0
14/05/2023,01:55:45,0.001,0.0,0.0,0.0
14/05/2023,01:56:45,0.000,0.0,0.0,0.0
14/05/2023,01:57:44,0.000,0.0,0.0,0.0
14/05/2023,01:58:45,0.000,0.0,0.0,0.0
14/05/2023,01:59:45,0.001,0.0,0.0,0.0
14/05/2023,02:00:45,0.000,0.0,0.0,0.0
14/05/2023,02:01:45,0.000,0.0,0.0,0.0
14/05/2023,02:02:45,-0.000,0.0,0.0,0.0
14/05/2023,02:03:45,0.001,0.0,0.0,0.0
14/05/2023,02:04:45,-0.000,0.0,0.0,0.0
14/05/2023,02:05:45,0.001,0.0,0.0,0.0
14/05/2023,02:06:45,0.000,0.0,0.0,0.0
14/05/2023,02:07:45,0.000,0.0,0.0,0.0
14/05/2023,02:08:44,0.000,0.0,0.0,0.0
14/05/2023,02:09:44,0.000,0.0,0.0,0.0
14/05/2023,02:10:45,-0.001,0.0,0.0,0.0
14/05/2023,02:11:44,0.000,0.0,0.0,0.0
14/05/2023,02:12:45,0.001,0.0,0.0,0.0
14/05/2023,02:13:44,-0.001,0.0,0.0,0.0
14/05/2023,02:14:45,0.001,0.0,0.0,0.0
14/05/2023,02:15:44,0.000,0.0,0.0,0.0
14/05/2023,02:16:45,0.000,0.0,0.0,0.0
14/05/2023,02:17:45,0.000,0.0,0.0,0.0
14/05/2023,02:18:44,0.000,0.0,0.0,0.0
14/05/2023,02:19:45,0.000,0.0,0.0,0.0
14/05/2023,02:20:45,0.000,0.0,0.0,0.0
14/05/2023,02:21:45,0.001,0.0,0.0,0.0
14/05/2023,02:22:45,0.001,0.0,0.0,0.0
14/05/2023,02:23:45,0.001,0.0,0.0,0.0
14/05/2023,02:24:45,0.000,0.0,0.0,0.0
14/05/2023,02:25:45,0.000,0.0,0.0,0.0
14/05/2023,02:26:45,0.000,0.0,0.0,0.0
14/05/2023,02:27:45,0.000,0.0,0.0,0.0
14/05/2023,02:28:45,0.000,0.0,0.0,0.0
14/05/2023,02:29:45,-0.001,0.0,0.0,0.0
14/05/2023,02:30:45,0.000,0.0,0.0,0.0
14/05/2023,02:31:45,0.000,0.0,0.0,0.0
14/05/2023,02:32:45,0.001,0.0,0.0,0.0
14/05/2023,02:33:45,0.001,0.0,0.0,0.0
14/05/2023,02:34:45,0.000,0.0,0.0,0.0
14/05/2023,02:35:45,-0.000,0.0,0.0,0.0
14/05/2023,02:36:45,0.000,0.0,0.0,0.0
14/05/2023,02:37:44,0.000,0.0,0.0,0.0
14/05/2023,02:38:44,0.000,0.0,0.0,0.0
14/05/2023,02:39:45,-0.001,0.0,0.0,0.0
14/05/2023,02:40:45,0.000,0.0,0.0,0.0
14/05/2023,02:41:45,0.000,0.0,0.0,0.0
14/05/2023,02:42:45,0.001,0.0,0.0,0.0
14/05/2023,02:43:45,0.000,0.0,0.0,0.0
14/05/2023,02:44:45,0.000,0.0,0.0,0.0
14/05/2023,02:45:45,0.001,0.0,0.0,0.0
14/05/2023,02:46:45,0.000,0.0,0.0,0.0
14/05/2023,02:47:44,0.000,0.0,0.0,0.0
14/05/2023,02:48:45,0.000,0.0,0.0,0.0
14/05/2023,02:49:45,0.000,0.0,0.0,0.0
14/05/2023,02:50:45,0.000,0.0,0.0,0.0
14/05/2023,02:51:45,0.001,0.0,0.0,0.0
14/05/2023,02:52:46,-0.000,0.0,0.0,0.0
14/05/2023,02:53:46,0.000,0.0,0.0,0.0
14/05/2023,02:54:45,0.001,0.0,0.0,0.0
14/05/2023,02:55:45,0.001,0.0,0.0,0.0
14/05/2023,02:56:45,0.001,0.0,0.0,0.0
14/05/2023,02:57:45,0.000,0.0,0.0,0.0
14/05/2023,02:58:44,0.001,0.0,0.0,0.0
14/05/2023,02:59:44,0.000,0.0,0.0,0.0
14/05/2023,03:00:45,0.001,0.0,0.0,0.0
14/05/2023,03:01:45,0.000,0.0,0.0,0.0
14/05/2023,03:02:45,0.000,0.0,0.0,0.0
14/05/2023,03:03:45,0.000,0.0,0.0,0.0
14/05/2023,03:04:45,0.000,0.0,0.0,0.0
14/05/2023,03:05:45,0.000,0.0,0.0,0.0
14/05/2023,03:06:45,0.001,0.0,0.0,0.0
14/05/2023,03:07:45,0.001,0.0,0.0,0.0
14/05/2023,03:08:45,-0.000,0.0,0.0,0.0
14/05/2023,03:09:45,0.000,0.0,0.0,0.0
14/05/2023,03:10:44,-0.000,0.0,0.0,0.0
14/05/2023,03:11:44,0.001,0.0,0.0,0.0
14/05/2023,03:12:45,-0.001,0.0,0.0,0.0
14/05/2023,03:13:45,0.000,0.0,0.0,0.0
14/05/2023,03:14:44,0.001,0.0,0.0,0.0
14/05/2023,03:15:44,0.000,0.0,0.0,0.0
14/05/2023,03:16:45,0.000,0.0,0.0,0.0
14/05/2023,03:17:45,-0.001,0.0,0.0,0.0
14/05/2023,03:18:45,0.001,0.0,0.0,0.0
14/05/2023,03:19:45,-0.001,0.0,0.0,0.0
14/05/2023,03:20:45,0.001,0.0,0.0,0.0
14/05/2023,03:21:45,0.000,0.0,0.0,0.0
14/05/2023,03:22:45,0.000,0.0,0.0,0.0
14/05/2023,03:23:44,0.000,0.0,0.0,0.0
14/05/2023,03:24:45,0.001,0.0,0.0,0.0
14/05/2023,03:25:45,0.001,0.0,0.0,0.0
14/05/2023,03:26:45,0.001,0.0,0.0,0.0
14/05/2023,03:27:45,0.000,0.0,0.0,0.0
14/05/2023,03:28:45,0.000,0.0,0.0,0.0
14/05/2023,03:29:45,0.001,0.0,0.0,0.0
14/05/2023,03:30:45,0.000,0.0,0.0,0.0
14/05/2023,03:31:45,-0.001,0.0,0.0,0.0
14/05/2023,03:32:45,0.000,0.0,0.0,0.0
14/05/2023,03:33:45,0.001,0.0,0.0,0.0
14/05/2023,03:34:45,-0.000,0.0,0.0,0.0
14/05/2023,03:35:45,0.001,0.0,0.0,0.0
14/05/2023,03:36:45,0.001,0.0,0.0,0.0
14/05/2023,03:37:45,0.000,0.0,0.0,0.0
14/05/2023,03:38:45,0.000,0.0,0.0,0.0
14/05/2023,03:39:45,0.000,0.0,0.0,0.0
14/05/2023,03:40:44,0.000,0.0,0.0,0.0
14/05/2023,03:41:45,0.000,0.0,0.0,0.0
14/05/2023,03:42:45,0.000,0.0,0.0,0.0
14/05/2023,03:43:45,-0.000,0.0,0.0,0.0
14/05/2023,03:44:45,0.000,0.0,0.0,0.0
14/05/2023,03:45:45,0.000,0.0,0.0,0.0
14/05/2023,03:46:44,0.001,0.0,0.0,0.0
14/05/2023,03:47:44,0.000,0.0,0.0,0.0
14/05/2023,03:48:44,0.001,0.0,0.0,0.0
14/05/2023,03:49:45,-0.000,0.0,0.0,0.0
14/05/2023,03:50:45,0.001,0.0,0.0,0.0
14/05/2023,03:51:45,0.000,0.0,0.0,0.0
14/05/2023,03:52:46,-0.000,0.0,0.0,0.0
14/05/2023,03:53:45,0.001,0.0,0.0,0.0
14/05/2023,03:54:44,0.001,0.0,0.0,0.0
14/05/2023,03:55:45,0.000,0.0,0.0,0.0
14/05/2023,03:56:45,0.000,0.0,0.0,0.0
14/05/2023,03:57:45,0.001,0.0,0.0,0.0
14/05/2023,03:58:45,0.001,0.0,0.0,0.0
14/05/2023,03:59:45,0.001,0.0,0.0,0.0
14/05/2023,04:00:45,-0.000,0.0,0.0,0.0
14/05/2023,04:01:44,-0.000,0.0,0.0,0.0
14/05/2023,04:02:45,0.001,0.0,0.0,0.0
14/05/2023,04:03:45,0.000,0.0,0.0,0.0
14/05/2023,04:04:45,0.001,0.0,0.0,0.0
14/05/2023,04:05:45,0.001,0.0,0.0,0.0
14/05/2023,04:06:45,0.001,0.0,0.0,0.0
14/05/2023,04:07:45,0.001,0.0,0.0,0.0
14/05/2023,04:08:45,0.002,0.0,0.0,0.0
14/05/2023,04:09:45,0.001,0.0,0.0,0.0
14/05/2023,04:10:45,0.002,0.0,0.0,0.0
14/05/2023,04:11:45,0.001,0.0,0.0,0.0
14/05/2023,04:12:45,0.001,0.0,0.0,0.0
14/05/2023,04:13:45,0.002,0.0,0.0,0.0
14/05/2023,04:14:45,0.001,0.0,0.0,0.0
14/05/2023,04:15:45,0.001,0.0,0.0,0.0
14/05/2023,04:16:45,0.001,0.0,0.0,0.0
14/05/2023,04:17:45,0.001,0.0,0.0,0.0
14/05/2023,04:18:45,0.002,0.0,0.0,0.0
14/05/2023,04:19:45,0.001,0.0,0.0,0.0
14/05/2023,04:20:45,0.002,0.0,0.0,0.0
14/05/2023,04:21:45,0.002,0.0,0.0,0.0
14/05/2023,04:22:45,0.002,0.0,0.0,0.0
14/05/2023,04:23:45,0.002,0.0,0.0,0.0
14/05/2023,04:24:45,0.003,0.0,0.0,0.0
14/05/2023,04:25:45,0.002,0.0,0.0,0.0
14/05/2023,04:26:45,0.002,0.0,0.0,0.0
14/05/2023,04:27:45,0.002,0.0,0.0,0.0
14/05/2023,04:28:45,0.003,0.0,0.0,0.0
14/05/2023,04:29:45,0.003,0.0,0.0,0.0
14/05/2023,04:30:45,0.002,0.0,0.0,0.0
14/05/2023,04:31:45,0.003,0.0,0.0,0.0
14/05/2023,04:32:45,0.002,0.0,0.0,0.0
14/05/2023,04:33:45,0.003,0.0,0.0,0.0
14/05/2023,04:34:45,0.003,0.0,0.0,0.0
14/05/2023,04:35:45,0.004,0.0,0.0,0.0
14/05/2023,04:36:45,0.003,0.0,0.0,0.0
14/05/2023,04:37:45,0.004,0.0,0.0,0.0
14/05/2023,04:38:45,0.005,0.0,0.0,0.0
14/05/2023,04:39:44,0.004,0.0,0.0,0.0
14/05/2023,04:40:45,0.004,0.0,0.0,0.0
14/05/2023,04:41:45,0.004,0.0,0.0,0.0
14/05/2023,04:42:45,0.004,0.0,0.0,0.0
14/05/2023,04:43:45,0.005,0.0,0.0,0.0
14/05/2023,04:44:45,0.006,0.0,0.0,0.0
14/05/2023,04:45:45,0.005,0.0,0.0,0.0
14/05/2023,04:46:45,0.006,0.0,0.0,0.0
14/05/2023,04:47:45,0.006,0.0,0.0,0.0
14/05/2023,04:48:45,0.006,0.0,0.0,0.0
14/05/2023,04:49:45,0.006,0.0,0.0,0.0
14/05/2023,04:50:45,0.006,0.0,0.0,0.0
14/05/2023,04:51:45,0.006,0.0,0.0,0.0
14/05/2023,04:52:45,0.007,0.0,0.0,0.0
14/05/2023,04:53:45,0.007,0.0,0.001,0.001
14/05/2023,04:54:45,0.007,0.0,0.001,0.0
14/05/2023,04:55:45,0.007,0.0,0.001,0.0
14/05/2023,04:56:45,0.009,0.0,0.001,0.0
14/05/2023,04:57:45,0.008,0.0,0.001,0.0
14/05/2023,04:58:45,0.009,0.0,0.001,0.0
14/05/2023,04:59:45,0.009,0.0,0.001,0.0
14/05/2023,05:00:45,0.009,0.0,0.002,0.001
14/05/2023,05:01:45,0.009,0.0,0.002,0.0
14/05/2023,05:02:45,0.010,0.0,0.002,0.0
14/05/2023,05:03:45,0.010,0.0,0.002,0.0
14/05/2023,05:04:46,0.011,0.0,0.002,0.0
14/05/2023,05:05:45,0.011,0.0,0.002,0.0
14/05/2023,05:06:45,0.012,0.0,0.003,0.001
14/05/2023,05:07:45,0.013,0.0,0.003,0.0
14/05/2023,05:08:46,0.014,0.0,0.003,0.0
14/05/2023,05:09:46,0.015,0.0,0.003,0.0
14/05/2023,05:10:45,0.016,0.0,0.003,0.0
14/05/2023,05:11:45,0.015,0.0,0.004,0.001
14/05/2023,05:12:45,0.017,0.0,0.004,0.0
14/05/2023,05:13:45,0.017,0.0,0.004,0.0
14/05/2023,05:14:45,0.017,0.0,0.005,0.001
14/05/2023,05:15:45,0.018,0.0,0.005,0.0
14/05/2023,05:16:46,0.020,0.0,0.005,0.0
14/05/2023,05:17:45,0.022,0.0,0.006,0.001
14/05/2023,05:18:45,0.022,0.0,0.006,0.0
14/05/2023,05:19:45,0.022,0.0,0.006,0.0
14/05/2023,05:20:46,0.024,0.0,0.007,0.001
14/05/2023,05:21:44,0.022,0.0,0.007,0.0
14/05/2023,05:22:45,0.023,0.0,0.007,0.0
14/05/2023,05:23:45,0.024,0.0,0.008,0.001
14/05/2023,05:24:45,0.024,0.0,0.008,0.0
14/05/2023,05:25:45,0.024,0.0,0.009,0.001
14/05/2023,05:26:45,0.024,0.0,0.009,0.0
14/05/2023,05:27:45,0.024,0.0,0.009,0.0
14/05/2023,05:28:45,0.024,0.0,0.01,0.001
14/05/2023,05:29:45,0.026,0.0,0.01,0.0
14/05/2023,05:30:45,0.027,0.0,0.011,0.001
14/05/2023,05:31:45,0.028,0.0,0.011,0.0
14/05/2023,05:32:45,0.028,0.0,0.012,0.001
14/05/2023,05:33:45,0.029,0.0,0.012,0.0
14/05/2023,05:34:45,0.029,0.0,0.013,0.001
14/05/2023,05:35:45,0.029,0.0,0.013,0.0
14/05/2023,05:36:45,0.029,0.0,0.013,0.0
14/05/2023,05:37:45,0.028,0.0,0.014,0.001
14/05/2023,05:38:45,0.029,0.0,0.014,0.0
14/05/2023,05:39:45,0.030,0.0,0.015,0.001
14/05/2023,05:40:45,0.032,0.0,0.015,0.0
14/05/2023,05:41:45,0.035,0.0,0.016,0.001
14/05/2023,05:42:45,0.035,0.0,0.017,0.001
14/05/2023,05:43:45,0.037,0.0,0.017,0.0
14/05/2023,05:44:45,0.038,0.0,0.018,0.001
14/05/2023,05:45:45,0.040,0.0,0.018,0.0
14/05/2023,05:46:45,0.043,0.0,0.019,0.001
14/05/2023,05:47:45,0.044,0.0,0.02,0.001
14/05/2023,05:48:45,0.045,0.0,0.021,0.001
14/05/2023,05:49:45,0.045,0.0,0.021,0.0
14/05/2023,05:50:45,0.045,0.0,0.022,0.001
14/05/2023,05:51:46,0.046,0.0,0.023,0.001
14/05/2023,05:52:45,0.048,0.0,0.024,0.001
14/05/2023,05:53:45,0.048,0.0,0.024,0.0
14/05/2023,05:54:45,0.049,0.0,0.025,0.001
14/05/2023,05:55:45,0.050,0.0,0.026,0.001
14/05/2023,05:56:45,0.050,0.0,0.027,0.001
14/05/2023,05:57:45,0.050,0.0,0.028,0.001
14/05/2023,05:58:45,0.050,0.0,0.029,0.001
14/05/2023,05:59:45,0.051,0.0,0.029,0.0
14/05/2023,06:00:45,0.052,0.0,0.03,0.001
14/05/2023,06:01:45,0.052,0.0,0.031,0.001
14/05/2023,06:02:45,0.053,0.0,0.032,0.001
14/05/2023,06:03:45,0.055,0.0,0.033,0.001
14/05/2023,06:04:45,0.054,0.0,0.034,0.001
14/05/2023,06:05:45,0.057,0.0,0.035,0.001
14/05/2023,06:06:45,0.057,0.0,0.036,0.001
14/05/2023,06:07:45,0.061,0.0,0.037,0.001
14/05/2023,06:08:45,0.065,0.0,0.038,0.001
14/05/2023,06:09:45,0.069,0.0,0.039,0.001
14/05/2023,06:10:45,0.068,0.0,0.04,0.001
14/05/2023,06:11:45,0.066,0.0,0.041,0.001
14/05/2023,06:12:45,0.066,0.0,0.042,0.001
14/05/2023,06:13:45,0.069,0.0,0.043,0.001
14/05/2023,06:14:45,0.071,0.0,0.044,0.001
14/05/2023,06:15:45,0.074,0.0,0.046,0.002
14/05/2023,06:16:45,0.077,0.0,0.047,0.001
14/05/2023,06:17:45,0.077,0.0,0.048,0.001
14/05/2023,06:18:45,0.080,0.0,0.05,0.002
14/05/2023,06:19:45,0.084,0.0,0.051,0.001
14/05/2023,06:20:46,0.087,0.0,0.052,0.001
14/05/2023,06:21:45,0.090,0.0,0.054,0.002
14/05/2023,06:22:45,0.093,0.0,0.055,0.001
14/05/2023,06:23:45,0.095,0.0,0.057,0.002
14/05/2023,06:24:45,0.098,0.0,0.058,0.001
14/05/2023,06:25:45,0.100,0.0,0.06,0.002
14/05/2023,06:26:45,0.106,0.0,0.062,0.002
14/05/2023,06:27:45,0.112,0.0,0.064,0.002
14/05/2023,06:28:45,0.116,0.0,0.066,0.002
14/05/2023,06:29:47,0.117,0.0,0.067,0.001
14/05/2023,06:30:46,0.118,0.0,0.069,0.002
14/05/2023,06:31:45,0.120,0.0,0.071,0.002
14/05/2023,06:32:45,0.120,0.0,0.073,0.002
14/05/2023,06:33:45,0.118,0.0,0.075,0.002
14/05/2023,06:34:45,0.114,0.0,0.077,0.002
14/05/2023,06:35:45,0.112,0.0,0.079,0.002
14/05/2023,06:36:45,0.112,0.0,0.081,0.002
14/05/2023,06:37:45,0.115,0.0,0.083,0.002
14/05/2023,06:38:46,0.114,0.0,0.085,0.002
14/05/2023,06:39:46,0.111,0.0,0.087,0.002
14/05/2023,06:40:45,0.107,0.0,0.089,0.002
14/05/2023,06:41:45,0.111,0.0,0.09,0.001
14/05/2023,06:42:45,0.118,0.0,0.092,0.002
14/05/2023,06:43:45,0.126,0.0,0.094,0.002
14/05/2023,06:44:45,0.130,0.0,0.096,0.002
14/05/2023,06:45:45,0.133,0.0,0.099,0.003
14/05/2023,06:46:45,0.142,0.0,0.101,0.002
14/05/2023,06:47:45,0.154,0.0,0.103,0.002
14/05/2023,06:48:45,0.160,0.0,0.106,0.003
14/05/2023,06:49:45,0.163,0.0,0.109,0.003
14/05/2023,06:50:45,0.165,0.0,0.111,0.002
14/05/2023,06:51:45,0.174,0.0,0.114,0.003
14/05/2023,06:52:45,0.186,0.0,0.117,0.003
14/05/2023,06:53:45,0.196,0.0,0.12,0.003
14/05/2023,06:54:45,0.200,0.0,0.124,0.004
14/05/2023,06:55:46,0.204,0.0,0.127,0.003
14/05/2023,06:56:46,0.214,0.0,0.131,0.004
14/05/2023,06:57:46,0.225,1.0,0.134,0.003
14/05/2023,06:58:45,0.233,1.0,0.138,0.004
14/05/2023,06:59:45,0.235,1.0,0.142,0.004
14/05/2023,07:00:45,0.235,1.0,0.146,0.004
14/05/2023,07:01:45,0.235,1.0,0.15,0.004
14/05/2023,07:02:45,0.240,1.0,0.154,0.004
14/05/2023,07:03:45,0.250,1.0,0.158,0.004
14/05/2023,07:04:45,0.257,1.0,0.162,0.004
14/05/2023,07:05:45,0.257,1.0,0.166,0.004
14/05/2023,07:06:45,0.242,1.0,0.171,0.005
14/05/2023,07:07:45,0.234,1.0,0.174,0.003
14/05/2023,07:08:45,0.236,1.0,0.178,0.004
14/05/2023,07:09:45,0.244,1.0,0.182,0.004
14/05/2023,07:10:45,0.260,1.0,0.187,0.005
14/05/2023,07:11:45,0.275,1.0,0.191,0.004
14/05/2023,07:12:45,0.277,1.0,0.196,0.005
14/05/2023,07:13:45,0.271,1.0,0.2,0.004
14/05/2023,07:14:45,0.252,1.0,0.205,0.005
14/05/2023,07:15:45,0.239,1.0,0.209,0.004
14/05/2023,07:16:45,0.238,1.0,0.213,0.004
14/05/2023,07:17:45,0.250,1.0,0.217,0.004
14/05/2023,07:18:45,0.267,1.0,0.221,0.004
14/05/2023,07:19:45,0.275,1.0,0.225,0.004
14/05/2023,07:20:45,0.271,1.0,0.23,0.005
14/05/2023,07:21:45,0.258,1.0,0.235,0.005
14/05/2023,07:22:45,0.249,1.0,0.239,0.004
14/05/2023,07:23:45,0.251,1.0,0.243,0.004
14/05/2023,07:24:45,0.259,1.0,0.247,0.004
14/05/2023,07:25:45,0.267,1.0,0.251,0.004
14/05/2023,07:26:45,0.277,1.0,0.256,0.005
14/05/2023,07:27:46,0.287,1.0,0.261,0.005
14/05/2023,07:28:45,0.298,1.0,0.266,0.005
14/05/2023,07:29:46,0.307,1.0,0.271,0.005
14/05/2023,07:30:45,0.314,1.0,0.276,0.005
14/05/2023,07:31:45,0.318,1.0,0.281,0.005
14/05/2023,07:32:45,0.322,1.0,0.286,0.005
14/05/2023,07:33:45,0.327,1.0,0.292,0.006
14/05/2023,07:34:46,0.327,1.0,0.297,0.005
14/05/2023,07:35:46,0.328,1.0,0.303,0.006
14/05/2023,07:36:45,0.323,1.0,0.308,0.005
14/05/2023,07:37:46,0.318,1.0,0.314,0.006
14/05/2023,07:38:46,0.330,1.0,0.319,0.005
14/05/2023,07:39:45,0.355,1.0,0.325,0.006
14/05/2023,07:40:45,0.371,1.0,0.331,0.006
14/05/2023,07:41:45,0.372,1.0,0.337,0.006
14/05/2023,07:42:45,0.378,1.0,0.343,0.006
14/05/2023,07:43:45,0.392,1.0,0.35,0.007
14/05/2023,07:44:46,0.406,1.0,0.356,0.006
14/05/2023,07:45:46,0.409,1.0,0.363,0.007
14/05/2023,07:46:45,0.411,1.0,0.37,0.007
14/05/2023,07:47:45,0.414,1.0,0.377,0.007
14/05/2023,07:48:45,0.411,1.0,0.383,0.006
14/05/2023,07:49:45,0.403,1.0,0.391,0.008
14/05/2023,07:50:45,0.402,1.0,0.397,0.006
14/05/2023,07:51:45,0.414,1.0,0.404,0.007
14/05/2023,07:52:46,0.426,1.0,0.411,0.007
14/05/2023,07:53:46,0.428,1.0,0.418,0.007
14/05/2023,07:54:46,0.427,1.0,0.425,0.007
14/05/2023,07:55:46,0.433,1.0,0.432,0.007
14/05/2023,07:56:45,0.443,1.0,0.44,0.008
14/05/2023,07:57:46,0.458,1.0,0.447,0.007
14/05/2023,07:58:46,0.471,1.0,0.455,0.008
14/05/2023,07:59:45,0.497,1.0,0.463,0.008
14/05/2023,08:00:45,0.520,1.0,0.471,0.008
14/05/2023,08:01:45,0.540,1.0,0.48,0.009
14/05/2023,08:02:45,0.519,1.0,0.489,0.009
14/05/2023,08:03:46,0.531,1.0,0.498,0.009
14/05/2023,08:04:46,0.561,1.0,0.507,0.009
14/05/2023,08:05:45,0.582,1.0,0.517,0.01
14/05/2023,08:06:46,0.571,1.0,0.527,0.01
14/05/2023,08:07:45,0.562,1.0,0.536,0.009
14/05/2023,08:08:45,0.570,1.0,0.545,0.009
14/05/2023,08:09:45,0.584,1.0,0.555,0.01
14/05/2023,08:10:45,0.611,1.0,0.565,0.01
14/05/2023,08:11:44,0.658,2.0,0.575,0.01
14/05/2023,08:13:15,0.684,2.0,0.594,0.019
14/05/2023,08:14:46,0.767,2.0,0.611,0.017
14/05/2023,08:15:45,0.696,2.0,0.623,0.012
14/05/2023,08:16:45,0.716,2.0,0.635,0.012
14/05/2023,08:17:46,0.676,2.0,0.647,0.012
14/05/2023,08:18:45,0.803,2.0,0.658,0.011
14/05/2023,08:19:45,0.874,2.0,0.673,0.015
14/05/2023,08:20:45,0.828,2.0,0.687,0.014
14/05/2023,08:21:46,0.810,2.0,0.701,0.014
14/05/2023,08:22:45,0.922,2.0,0.715,0.014
14/05/2023,08:23:45,0.930,2.0,0.731,0.016
14/05/2023,08:24:45,0.945,2.0,0.746,0.015
14/05/2023,08:25:45,0.953,2.0,0.763,0.017
14/05/2023,08:26:46,0.958,2.0,0.779,0.016
14/05/2023,08:27:46,0.965,2.0,0.795,0.016
14/05/2023,08:28:45,0.967,2.0,0.81,0.015
14/05/2023,08:29:46,0.971,2.0,0.827,0.017
14/05/2023,08:30:46,0.924,2.0,0.843,0.016
14/05/2023,08:31:46,0.916,2.0,0.858,0.015
14/05/2023,08:32:45,0.947,2.0,0.874,0.016
14/05/2023,08:33:45,0.966,2.0,0.889,0.015
14/05/2023,08:34:46,0.965,2.0,0.906,0.017
14/05/2023,08:35:45,0.997,2.0,0.921,0.015
14/05/2023,08:36:45,1.016,2.0,0.939,0.018
14/05/2023,08:37:46,1.019,2.0,0.956,0.017
14/05/2023,08:38:46,1.027,2.0,0.973,0.017
14/05/2023,08:39:45,1.036,2.0,0.99,0.017
14/05/2023,08:40:46,1.044,2.0,1.007,0.017
14/05/2023,08:41:46,1.052,2.0,1.025,0.018
14/05/2023,08:42:45,1.071,2.0,1.042,0.017
14/05/2023,08:43:45,1.078,2.0,1.06,0.018
14/05/2023,08:44:45,1.078,2.0,1.078,0.018
14/05/2023,08:45:45,1.082,2.0,1.096,0.018
14/05/2023,08:46:45,1.082,2.0,1.114,0.018
14/05/2023,08:47:45,1.092,3.0,1.133,0.019
14/05/2023,08:48:46,1.094,3.0,1.151,0.018
14/05/2023,08:49:45,1.114,3.0,1.169,0.018
14/05/2023,08:50:46,1.115,3.0,1.188,0.019
14/05/2023,08:51:46,1.125,3.0,1.206,0.018
14/05/2023,08:52:45,1.129,3.0,1.225,0.019
14/05/2023,08:53:45,1.139,3.0,1.243,0.018
14/05/2023,08:54:46,1.152,3.0,1.263,0.02
14/05/2023,08:55:45,1.165,3.0,1.282,0.019
14/05/2023,08:56:45,1.167,3.0,1.302,0.02
14/05/2023,08:57:45,1.179,3.0,1.321,0.019
14/05/2023,08:58:46,1.186,3.0,1.341,0.02
14/05/2023,08:59:46,1.185,3.0,1.361,0.02
14/05/2023,09:00:46,1.182,3.0,1.381,0.02
14/05/2023,09:01:46,1.164,3.0,1.4,0.019
14/05/2023,09:02:46,1.184,3.0,1.42,0.02
14/05/2023,09:03:46,1.151,3.0,1.44,0.02
14/05/2023,09:04:46,1.159,3.0,1.459,0.019
14/05/2023,09:05:46,1.154,3.0,1.478,0.019
14/05/2023,09:06:45,1.165,3.0,1.496,0.018
14/05/2023,09:07:45,1.160,3.0,1.516,0.02
14/05/2023,09:08:46,1.161,3.0,1.536,0.02
14/05/2023,09:09:46,1.174,3.0,1.555,0.019
14/05/2023,09:10:45,1.182,3.0,1.574,0.019
14/05/2023,09:11:45,1.196,3.0,1.595,0.021
14/05/2023,09:12:45,1.190,3.0,1.614,0.019
14/05/2023,09:13:46,1.211,3.0,1.635,0.021
14/05/2023,09:14:46,1.213,3.0,1.655,0.02
14/05/2023,09:15:44,1.243,3.0,1.674,0.019
14/05/2023,09:17:07,1.252,3.0,1.704,0.03
14/05/2023,09:18:46,1.279,3.0,1.738,0.034
14/05/2023,09:19:45,1.287,3.0,1.759,0.021
14/05/2023,09:20:46,1.311,3.0,1.781,0.022
14/05/2023,09:21:46,1.324,3.0,1.803,0.022
14/05/2023,09:22:46,1.336,3.0,1.825,0.022
14/05/2023,09:23:46,1.360,3.0,1.848,0.023
14/05/2023,09:24:45,1.364,3.0,1.87,0.022
14/05/2023,09:25:46,1.368,3.0,1.893,0.023
14/05/2023,09:26:46,1.378,3.0,1.916,0.023
14/05/2023,09:27:46,1.396,3.0,1.939,0.023
14/05/2023,09:28:45,1.410,3.0,1.962,0.023
14/05/2023,09:29:45,1.414,3.0,1.986,0.024
14/05/2023,09:30:45,1.406,3.0,2.009,0.023
14/05/2023,09:31:46,1.420,3.0,2.033,0.024
14/05/2023,09:32:46,1.427,3.0,2.057,0.024
14/05/2023,09:33:45,1.437,3.0,2.081,0.024
14/05/2023,09:34:45,1.440,3.0,2.105,0.024
14/05/2023,09:35:46,1.444,3.0,2.129,0.024
14/05/2023,09:36:46,1.451,3.0,2.153,0.024
14/05/2023,09:37:46,1.470,3.0,2.177,0.024
14/05/2023,09:38:46,1.465,3.0,2.202,0.025
14/05/2023,09:39:45,1.468,3.0,2.225,0.023
14/05/2023,09:40:46,1.479,3.0,2.251,0.026
14/05/2023,09:41:46,1.486,3.0,2.275,0.024
14/05/2023,09:42:46,1.492,3.0,2.3,0.025
14/05/2023,09:43:45,1.505,3.0,2.325,0.025
14/05/2023,09:44:45,1.509,3.0,2.349,0.024
14/05/2023,09:45:46,1.509,3.0,2.375,0.026
14/05/2023,09:46:46,1.437,3.0,2.4,0.025
14/05/2023,09:47:45,1.494,3.0,2.425,0.025
14/05/2023,09:48:46,1.513,3.0,2.45,0.025
14/05/2023,09:50:15,1.508,3.0,2.487,0.037
14/05/2023,09:51:45,1.523,4.0,2.526,0.039
14/05/2023,09:52:45,1.525,4.0,2.551,0.025
14/05/2023,09:53:46,1.521,3.0,2.577,0.026
14/05/2023,09:54:46,1.542,4.0,2.602,0.025
14/05/2023,09:55:45,1.546,4.0,2.628,0.026
14/05/2023,09:56:45,1.555,4.0,2.654,0.026
14/05/2023,09:57:46,1.559,4.0,2.68,0.026
14/05/2023,09:58:45,1.562,4.0,2.705,0.025
14/05/2023,09:59:45,1.574,4.0,2.731,0.026
14/05/2023,10:00:45,1.575,4.0,2.758,0.027
14/05/2023,10:01:45,1.583,4.0,2.784,0.026
14/05/2023,10:02:46,1.575,4.0,2.811,0.027